Home > Weather > Bünde > Past weeks

Flag for Germany Past Weather in Bünde, North Rhine-Westphalia, Germany — Yesterday and Last 2 Weeks

Now
70 °F

Passing clouds.


Feels Like: 70 °F
Forecast: 60 / 75 °F
Wind: 6 mph from North

Location: Bueckeburg

Current Time: Jul 26, 2016 at 12:12:28 AM

Latest Report: Jul 25, 2016 at 11:20 PM


Visibility: N/A

Pressure: 30.09 "Hg

Humidity: 83%

Dew Point: 64 °F

Location of BündeLocation

Past Weather in Bünde — Graph

°F

Bünde Temperature Yesterday

Maximum temperature yesterday: 84 °F (at 5:20 PM)
Minimum temperature yesterday: 66 °F (at 1:20 AM)
Average temperature yesterday: 74 °F

High & Low Weather Summary for the Past Weeks

 TemperatureHumidityPressure
High90 °F (Jul 20, 3:20 PM)100% (Jul 17, 3:20 AM)30.24 "Hg (Jul 17, 3:20 AM)
Low54 °F (Jul 14, 6:20 AM)28% (Jul 17, 4:20 PM)29.74 "Hg (Jul 10, 10:20 PM)
Average69 °F69%30.03 "Hg
* Reported Jul 10 10:20 PM — Jul 25 10:20 PM, Bünde, Weather by CustomWeather, © 2016

Note: Actual official high and low records may vary slightly from our data, if they occured in-between our weather recording intervals... More about our weather records

Advertising

Bünde Weather History for the Previous 24 Hours

Scroll right to see more
 ConditionsComfort  
Time TempWeatherWind HumidityBarometerVisibility
10:20 PM
Mon, Jul 25
73 °FPartly sunny.5 mph69%30.09 "HgN/A
9:20 PM75 °FPartly sunny.6 mph65%30.07 "HgN/A
8:20 PM75 °FPartly sunny.6 mph65%30.07 "HgN/A
7:20 PM77 °FPartly sunny.9 mph61%30.04 "HgN/A
6:20 PM79 °FPartly sunny.12 mph58%30.04 "HgN/A
5:20 PM84 °FPartly sunny.9 mph43%30.04 "HgN/A
4:20 PM82 °FPartly sunny.12 mph42%30.04 "HgN/A
3:20 PM82 °FPartly sunny.12 mph48%30.04 "HgN/A
2:20 PM82 °FPartly sunny.10 mph48%30.04 "HgN/A
1:20 PM81 °FPartly sunny.10 mph51%30.04 "HgN/A
12:20 PM79 °FBroken clouds.10 mph58%30.07 "HgN/A
11:20 AM77 °FBroken clouds.8 mph65%30.07 "HgN/A
10:20 AM77 °FPartly sunny.6 mph65%30.07 "HgN/A
9:20 AM73 °FPartly sunny.3 mph74%30.07 "HgN/A
8:20 AM70 °FPartly sunny.2 mph83%30.04 "HgN/A
7:20 AM70 °FBroken clouds.2 mph83%30.04 "HgN/A
6:20 AM66 °FPassing clouds.2 mph94%30.04 "HgN/A
5:20 AM66 °FPassing clouds.3 mph88%30.04 "HgN/A
4:20 AM66 °FPassing clouds.1 mph88%30.04 "HgN/A
3:20 AM66 °FPassing clouds.2 mph88%30.04 "HgN/A
2:20 AM66 °FPassing clouds.2 mph88%30.07 "HgN/A
1:20 AM66 °FPartly cloudy.2 mph83%30.07 "HgN/A
12:20 AM68 °FPassing clouds.2 mph83%30.07 "HgN/A
Weather by CustomWeather, © 2016

See weather overviewHow to use our weather pages